TimeCST,TemperatureF,Dew PointF,Humidity,Sea Level PressureIn,VisibilityMPH,Wind Direction,Wind SpeedMPH,Gust SpeedMPH,PrecipitationIn,Events,Conditions,WindDirDegrees,DateUTC
12:15 AM,33.6,28.4,81,30.17,10.0,ESE,9.2,-,N/A,,Clear,120,2013-03-08 06:15:00
12:35 AM,33.3,28.6,83,30.17,10.0,ESE,8.1,-,N/A,,Clear,120,2013-03-08 06:35:00
12:55 AM,32.9,28.2,83,30.17,10.0,ESE,6.9,-,N/A,,Clear,110,2013-03-08 06:55:00
1:15 AM,32.5,28.2,84,30.17,10.0,ESE,6.9,-,N/A,,Clear,110,2013-03-08 07:15:00
1:35 AM,32.0,28.0,85,30.17,10.0,ESE,6.9,-,N/A,,Clear,110,2013-03-08 07:35:00
1:55 AM,32.0,27.9,85,30.17,10.0,ESE,5.8,-,N/A,,Clear,110,2013-03-08 07:55:00
2:15 AM,32.0,27.9,85,30.17,10.0,ESE,5.8,-,N/A,,Clear,110,2013-03-08 08:15:00
2:35 AM,32.0,27.9,85,30.17,10.0,East,4.6,-,N/A,,Clear,100,2013-03-08 08:35:00
2:55 AM,31.8,27.5,84,30.16,10.0,ESE,4.6,-,N/A,,Clear,110,2013-03-08 08:55:00
3:15 AM,31.5,27.5,85,30.16,10.0,East,4.6,-,N/A,,Clear,90,2013-03-08 09:15:00
3:35 AM,31.1,27.5,87,30.15,10.0,East,3.5,-,N/A,,Clear,80,2013-03-08 09:35:00
3:55 AM,30.7,27.3,87,30.15,10.0,East,3.5,-,N/A,,Clear,90,2013-03-08 09:55:00
4:15 AM,30.6,27.3,88,30.14,10.0,ESE,4.6,-,N/A,,Clear,120,2013-03-08 10:15:00
4:35 AM,31.6,27.5,85,30.15,10.0,East,4.6,-,N/A,,Clear,100,2013-03-08 10:35:00
4:55 AM,30.7,27.1,86,30.14,10.0,East,4.6,-,N/A,,Clear,90,2013-03-08 10:55:00
5:15 AM,30.9,27.3,86,30.14,10.0,East,3.5,-,N/A,,Clear,90,2013-03-08 11:15:00
5:35 AM,31.1,27.3,86,30.13,10.0,East,4.6,-,N/A,,Clear,90,2013-03-08 11:35:00
5:55 AM,31.1,27.1,85,30.13,10.0,East,4.6,-,N/A,,Clear,80,2013-03-08 11:55:00
6:15 AM,30.7,26.8,85,30.14,10.0,East,3.5,-,N/A,,Clear,80,2013-03-08 12:15:00
6:35 AM,30.0,26.4,86,30.14,10.0,Calm,Calm,-,N/A,,Clear,0,2013-03-08 12:35:00
6:55 AM,28.9,26.2,90,30.14,10.0,ENE,3.5,-,N/A,,Clear,70,2013-03-08 12:55:00
7:15 AM,29.1,26.6,90,30.13,7.0,East,3.5,-,N/A,,Clear,80,2013-03-08 13:15:00
7:35 AM,30.6,27.5,88,30.13,7.0,East,4.6,-,N/A,,Clear,100,2013-03-08 13:35:00
7:55 AM,32.0,28.2,86,30.13,7.0,East,4.6,-,N/A,,Clear,90,2013-03-08 13:55:00
8:15 AM,33.6,28.9,83,30.14,10.0,East,4.6,-,N/A,,Clear,100,2013-03-08 14:15:00
8:35 AM,35.8,29.8,79,30.14,10.0,ESE,5.8,-,N/A,,Clear,110,2013-03-08 14:35:00
8:55 AM,37.6,30.9,77,30.13,10.0,ESE,8.1,-,N/A,,Clear,110,2013-03-08 14:55:00
9:15 AM,38.5,31.5,76,30.14,10.0,ESE,8.1,-,N/A,,Clear,120,2013-03-08 15:15:00
9:35 AM,39.9,31.6,72,30.14,10.0,ESE,9.2,-,N/A,,Clear,120,2013-03-08 15:35:00
9:55 AM,42.4,32.0,67,30.13,10.0,ESE,10.4,-,N/A,,Clear,110,2013-03-08 15:55:00
10:15 AM,44.1,32.2,63,30.13,10.0,ESE,8.1,-,N/A,,Clear,110,2013-03-08 16:15:00
10:35 AM,43.5,32.0,64,30.13,10.0,SE,9.2,-,N/A,,Clear,130,2013-03-08 16:35:00
11:15 AM,44.6,32.4,62,30.11,10.0,ESE,11.5,-,N/A,,Clear,120,2013-03-08 17:15:00
11:35 AM,44.2,32.5,63,30.10,10.0,ESE,12.7,-,N/A,,Scattered Clouds,120,2013-03-08 17:35:00
11:55 AM,44.2,32.9,64,30.08,10.0,ESE,10.4,-,N/A,,Mostly Cloudy,110,2013-03-08 17:55:00
12:15 PM,46.2,33.8,62,30.06,10.0,East,10.4,-,N/A,,Scattered Clouds,100,2013-03-08 18:15:00
12:35 PM,47.1,34.2,61,30.10,10.0,SE,8.1,-,N/A,,Mostly Cloudy,130,2013-03-08 18:35:00
12:55 PM,50.2,34.9,56,30.09,10.0,SE,8.1,-,N/A,,Scattered Clouds,140,2013-03-08 18:55:00
1:15 PM,52.5,35.8,53,30.07,10.0,SE,9.2,-,N/A,,Clear,130,2013-03-08 19:15:00
1:35 PM,53.2,35.8,52,30.05,10.0,ESE,12.7,17.3,N/A,,Clear,110,2013-03-08 19:35:00
1:55 PM,53.4,35.8,51,30.03,10.0,ESE,13.8,17.3,N/A,,Clear,110,2013-03-08 19:55:00
2:15 PM,52.9,36.3,53,30.01,10.0,ESE,13.8,-,N/A,,Clear,120,2013-03-08 20:15:00
2:35 PM,53.6,36.9,53,30.01,10.0,SE,13.8,19.6,N/A,,Clear,140,2013-03-08 20:35:00
2:55 PM,54.1,36.7,52,30.01,10.0,SE,15.0,-,N/A,,Clear,140,2013-03-08 20:55:00
3:15 PM,53.8,36.9,53,30.00,10.0,SE,13.8,-,N/A,,Clear,130,2013-03-08 21:15:00
3:35 PM,54.7,37.2,52,29.99,10.0,SE,13.8,-,N/A,,Clear,130,2013-03-08 21:35:00
3:55 PM,54.5,36.9,51,29.98,10.0,ESE,13.8,21.9,N/A,,Clear,120,2013-03-08 21:55:00
4:15 PM,53.8,37.4,54,29.98,10.0,ESE,11.5,-,N/A,,Scattered Clouds,110,2013-03-08 22:15:00
4:35 PM,54.1,37.8,54,29.96,10.0,ESE,13.8,19.6,N/A,,Clear,120,2013-03-08 22:35:00
4:55 PM,53.4,38.3,57,29.96,10.0,ESE,13.8,21.9,N/A,,Scattered Clouds,120,2013-03-08 22:55:00
5:15 PM,52.7,38.5,58,29.94,10.0,ESE,15.0,18.4,N/A,,Mostly Cloudy,110,2013-03-08 23:15:00
5:35 PM,51.3,38.3,61,29.95,10.0,ESE,17.3,24.2,N/A,,Scattered Clouds,120,2013-03-08 23:35:00
5:55 PM,50.2,38.3,64,29.95,10.0,ESE,18.4,26.5,N/A,,Clear,110,2013-03-08 23:55:00
6:15 PM,49.3,37.8,65,29.96,10.0,ESE,16.1,21.9,N/A,,Scattered Clouds,120,2013-03-09 00:15:00
6:35 PM,48.0,37.4,67,29.94,10.0,ESE,16.1,21.9,N/A,,Mostly Cloudy,110,2013-03-09 00:35:00
6:55 PM,47.1,37.0,68,29.95,10.0,ESE,17.3,23.0,N/A,,Overcast,120,2013-03-09 00:55:00
7:15 PM,46.4,36.9,69,29.96,10.0,ESE,16.1,24.2,N/A,,Overcast,120,2013-03-09 01:15:00
7:35 PM,45.7,36.9,71,29.96,10.0,ESE,13.8,19.6,N/A,,Overcast,110,2013-03-09 01:35:00
7:55 PM,45.5,37.0,72,29.96,10.0,ESE,16.1,20.7,N/A,,Overcast,120,2013-03-09 01:55:00
8:15 PM,45.1,37.0,73,29.96,10.0,ESE,15.0,20.7,N/A,,Overcast,120,2013-03-09 02:15:00
8:35 PM,45.7,36.5,70,29.96,10.0,ESE,18.4,26.5,N/A,,Overcast,120,2013-03-09 02:35:00
8:55 PM,45.1,36.5,72,29.96,10.0,ESE,16.1,23.0,N/A,,Overcast,120,2013-03-09 02:55:00
9:15 PM,45.0,36.3,72,29.94,10.0,ESE,18.4,23.0,N/A,,Overcast,120,2013-03-09 03:15:00
9:35 PM,44.1,36.7,75,29.94,10.0,ESE,16.1,21.9,N/A,,Light Drizzle,120,2013-03-09 03:35:00
9:55 PM,42.8,37.9,83,29.93,10.0,ESE,15.0,-,N/A,Rain,Light Rain,120,2013-03-09 03:55:00
10:15 PM,42.3,39.2,89,29.94,7.0,ESE,13.8,-,0.01,Rain,Light Rain,120,2013-03-09 04:15:00
10:35 PM,42.8,39.4,88,29.92,10.0,SE,13.8,19.6,0.01,,Light Drizzle,130,2013-03-09 04:35:00
10:55 PM,42.8,39.4,88,29.91,10.0,SE,16.1,23.0,0.01,Rain,Rain,130,2013-03-09 04:55:00
11:15 PM,42.3,40.3,93,29.89,5.0,SE,18.4,24.2,0.03,Rain-Thunderstorm,Light Thunderstorms and Rain,130,2013-03-09 05:15:00
11:35 PM,42.3,40.5,93,29.89,10.0,SE,16.1,20.7,0.03,,Overcast,130,2013-03-09 05:35:00
11:55 PM,42.1,41.0,96,29.88,5.0,SE,17.3,24.2,0.06,Rain,Rain,140,2013-03-09 05:55:00